Monterey, CA

9:44 PM PDT on April 23, 2017 (GMT -0700)
Monterey Peninsula

Weather History for KMRY - April, 2014

Change the Weather History Date:

Sunday, April 27, 2014

  Actual Average Record
Temperature  
Mean Temperature 57 °F 55 °F  
Max Temperature 63 °F 62 °F 88 °F (2004)
Min Temperature 51 °F 48 °F 41 °F (1999)
Degree Days  
Heating Degree Days 8    
Month to date heating degree days 216  
Since 1 July heating degree days 2261  
Cooling Degree Days 0    
Month to date cooling degree days 0  
Year to date cooling degree days 2  
Growing Degree Days 6 (Base 50)    
Moisture  
Dew Point 46 °F    
Average Humidity 69    
Maximum Humidity 80    
Minimum Humidity 57    
Precipitation  
Precipitation 0.00 in - 0.13 in (2002)
Month to date precipitation 1.10  
Year to date precipitation 7.20  
Since 1 July precipitation 8.48  
Sea Level Pressure  
Sea Level Pressure 30.15 in    
Wind  
Wind Speed 8 mph (WSW)    
Max Wind Speed 14 mph    
Max Gust Speed 18 mph    
Visibility 10 miles    
Events      
T = Trace of Precipitation, MM = Missing Value Source: NWS Daily Summary

Daily Weather History Graph

Daily Weather History Graph

Search for Another Location

Airport or City:

Trip Planner

Search our weather history database for the weather conditions in past years. The results will help you decide how hot, cold, wet, or windy it might be!

Date:

Astronomy

Apr. 27, 2014 Rise Set
Actual Time 6:18 AM PDT 7:52 PM PDT
Civil Twilight 5:50 AM PDT 8:19 PM PDT
Nautical Twilight 5:17 AM PDT 8:52 PM PDT
Astronomical Twilight 4:43 AM PDT 9:27 PM PDT
Moon 5:18 AM PDT (4/27) 6:34 PM PDT (4/27)
Length of Visible Light 14h 28m
Length of Day
13h 34m
Waning Crescent, 3% of the Moon is Illuminated
Apr 27
Waning Crescent
Apr 28
New
May 6
First Quarter
May 14
Full
May 21
Last Quarter

Hourly Weather History & Observations

Time (PDT) Temp. Dew Point Humidity Pressure Visibility Wind Dir Wind Speed Gust Speed Precip Events Conditions
12:54 AM 52.0 °F 43.0 °F 71% 30.15 in 10.0 mi SSE 4.6 mph - N/A   Overcast
1:54 AM 51.1 °F 43.0 °F 74% 30.14 in 10.0 mi SE 4.6 mph - N/A   Partly Cloudy
2:54 AM 51.1 °F 42.1 °F 71% 30.14 in 10.0 mi SE 4.6 mph - N/A   Mostly Cloudy
3:54 AM 52.0 °F 42.1 °F 69% 30.12 in 10.0 mi SE 5.8 mph - N/A   Mostly Cloudy
4:54 AM 52.0 °F 41.0 °F 66% 30.12 in 10.0 mi SE 8.1 mph - N/A   Mostly Cloudy
5:54 AM 52.0 °F 41.0 °F 66% 30.12 in 10.0 mi East 8.1 mph - N/A   Overcast
6:54 AM 53.1 °F 41.0 °F 64% 30.12 in 10.0 mi East 6.9 mph - N/A   Overcast
7:54 AM 55.0 °F 41.0 °F 59% 30.13 in 10.0 mi East 4.6 mph - N/A   Overcast
9:54 AM 60.1 °F 48.0 °F 64% 30.14 in 10.0 mi SW 6.9 mph - N/A   Mostly Cloudy
10:54 AM 62.1 °F 48.0 °F 60% 30.14 in 10.0 mi NNW 6.9 mph - N/A   Mostly Cloudy
11:01 AM 60.8 °F 48.2 °F 63% 30.10 in 10.0 mi NNW 4.6 mph - N/A   Overcast
11:54 AM 57.9 °F 48.9 °F 72% 30.16 in 10.0 mi NW 11.5 mph - N/A   Mostly Cloudy
12:58 PM 57.2 °F 51.8 °F 82% 30.13 in 9.0 mi North 5.8 mph - N/A   Overcast
1:40 PM 57.2 °F 51.8 °F 82% 30.12 in 10.0 mi WNW 9.2 mph - N/A   Overcast
1:54 PM 57.9 °F 51.1 °F 78% 30.15 in 10.0 mi WNW 8.1 mph - N/A   Overcast
2:54 PM 62.1 °F 48.9 °F 62% 30.16 in 10.0 mi WNW 9.2 mph - N/A   Mostly Cloudy
3:11 PM 62.6 °F 46.4 °F 55% 30.12 in 10.0 mi WNW 6.9 mph - N/A   Scattered Clouds
3:54 PM 62.1 °F 48.0 °F 60% 30.14 in 10.0 mi WNW 11.5 mph - N/A   Clear
4:54 PM 61.0 °F 46.9 °F 60% 30.14 in 10.0 mi West 13.8 mph - N/A   Clear
5:54 PM 59.0 °F 46.0 °F 62% 30.16 in 10.0 mi West 10.4 mph - N/A   Clear
6:54 PM 57.9 °F 46.0 °F 65% 30.16 in 10.0 mi WSW 10.4 mph - N/A   Clear
7:54 PM 55.0 °F 46.0 °F 72% 30.17 in 10.0 mi SW 4.6 mph - N/A   Clear
8:54 PM 55.0 °F 46.9 °F 74% 30.19 in 10.0 mi SW 11.5 mph - N/A   Clear
9:54 PM 55.0 °F 48.0 °F 77% 30.20 in 10.0 mi WSW 9.2 mph - N/A   Clear
10:54 PM 54.0 °F 46.0 °F 75% 30.20 in 10.0 mi Calm Calm - N/A   Clear
11:54 PM 53.1 °F 46.9 °F 80% 30.21 in 10.0 mi South 3.5 mph - N/A   Partly Cloudy